Theta_e
302 302 303 304 305 306 307 308 309 310 310 310 309 309 309 308 308 308 308 308 308 308 309 309 309 308 308 307 307 307 306 306 307 307 308 308 308 309 310 312 313 315 316 316 317 318 318 318 318 318 319 320 320 320 321 321 321 320 320 320 320 320 319 318 318 318 318 318 318
303 302 303 305 306 307 307 308 309 310 310 310 310 309 309 309 309 309 309 309 309 310 310 310 309 308 308 307 307 307 307 307 307 308 308 308 310 311 312 313 314 315 316 316 316 317 317 317 317 317 318 318 319 320 320 321 321 320 320 320 320 320 319 318 318 318 318 318 318
304 304 303 304 304 305 306 308 309 310 309 310 310 311 310 310 310 310 310 310 310 310 310 310 309 308 308 307 308 308 308 308 308 309 309 310 311 313 313 314 314 315 316 316 316 316 316 316 317 317 317 318 318 319 319 320 320 320 319 319 319 319 318 318 318 318 318 317 317
304 304 304 304 304 304 306 308 309 309 310 311 311 311 311 311 311 311 311 311 310 310 310 309 309 309 309 309 309 309 309 310 310 311 311 312 313 314 314 314 314 315 315 315 315 316 316 316 317 317 317 318 318 318 319 319 320 320 319 319 319 318 318 318 317 317 317 317 316
305 305 305 306 305 306 307 309 309 310 311 311 312 312 312 312 313 313 312 312 312 311 310 310 310 310 310 310 310 310 311 311 312 312 313 313 313 313 314 314 314 314 314 315 315 315 315 316 317 317 318 318 318 318 319 320 319 319 319 319 318 318 317 317 317 317 317 316 316
307 306 306 306 306 307 308 309 310 311 311 312 312 313 313 313 313 313 313 312 313 312 312 312 312 312 312 312 313 313 313 313 314 314 313 313 314 314 314 314 314 314 315 315 315 314 314 315 316 317 317 318 318 319 320 320 319 319 318 318 317 317 317 317 317 317 316 316 315
308 308 308 307 307 308 309 310 311 311 312 312 312 312 312 313 313 313 313 313 313 313 313 313 313 312 312 313 313 313 313 314 314 315 315 315 315 315 315 315 315 315 315 315 314 313 313 314 315 316 317 318 318 319 319 319 319 318 317 317 317 317 317 316 316 316 316 315 314
309 308 308 308 308 309 310 311 311 311 312 312 312 312 312 312 312 312 312 312 312 312 312 312 312 312 312 312 312 313 313 313 313 313 314 314 314 314 314 315 315 315 315 314 314 313 313 314 315 315 316 317 317 317 318 318 318 317 317 316 316 316 316 316 316 316 315 314 314
308 308 308 308 309 310 310 311 311 312 312 312 312 312 312 312 312 312 311 312 312 312 313 312 313 313 313 313 313 313 313 313 313 313 313 313 313 313 314 314 314 314 313 313 313 312 312 314 314 315 316 316 316 316 317 317 317 316 316 316 315 316 316 316 316 315 314 314 314
308 308 308 308 309 309 310 311 312 312 312 312 313 313 313 313 312 312 312 312 313 313 313 313 313 313 313 313 313 313 314 314 314 313 313 313 314 314 314 314 314 313 312 312 312 311 312 314 314 315 315 316 316 316 316 317 316 316 315 315 315 315 315 315 315 314 314 314 314
308 308 308 308 309 309 310 311 312 313 313 313 313 313 313 313 312 312 312 313 313 313 313 313 313 313 313 314 314 314 314 314 314 314 314 314 315 315 314 314 313 313 312 312 311 312 313 314 314 314 315 316 316 316 317 317 316 315 315 315 315 314 314 314 314 314 314 314 314
309 309 309 309 309 310 311 312 313 313 313 313 313 313 313 312 312 312 313 313 313 313 313 314 314 314 314 314 315 315 315 315 315 315 315 315 315 315 315 314 314 313 312 312 312 312 313 314 314 314 314 315 316 316 317 316 316 315 314 314 314 314 314 314 314 314 315 314 314
309 309 309 309 310 310 312 312 313 313 313 313 313 313 313 312 312 312 313 313 313 313 314 314 315 315 315 315 316 316 316 316 316 316 315 315 315 315 315 315 314 314 313 312 313 313 313 314 314 314 314 314 315 316 316 316 316 315 314 314 314 314 314 314 314 314 314 314 313
309 309 310 310 310 311 312 312 313 313 313 313 313 313 312 312 312 313 313 313 313 313 314 314 315 315 316 316 317 317 317 317 316 316 316 316 316 316 315 315 315 314 314 313 313 313 314 314 314 314 314 314 315 316 316 316 315 314 314 314 314 314 314 314 314 314 314 313 312
310 310 310 310 310 311 312 312 312 312 313 313 313 313 312 312 313 313 314 314 314 314 314 314 315 315 316 317 317 317 317 317 317 317 316 316 316 316 316 316 315 314 314 314 314 314 314 315 315 315 314 314 315 315 316 316 315 314 314 314 314 313 314 314 314 314 313 312 310
310 310 310 310 310 310 311 311 312 312 313 313 313 312 312 312 313 314 314 314 314 314 314 313 314 315 316 317 317 317 317 317 317 317 317 317 317 316 316 316 315 315 315 314 314 315 315 315 315 315 314 315 315 315 315 315 315 314 314 314 314 314 313 313 313 313 312 311 310
310 310 310 310 310 310 310 311 312 312 313 313 313 312 312 312 314 314 315 314 314 313 313 313 315 315 316 317 317 317 317 317 317 317 317 317 317 316 316 316 316 316 315 315 315 315 315 315 315 315 315 315 316 315 315 315 314 314 314 314 314 313 313 313 313 312 311 310 309
310 310 310 310 310 310 310 311 312 312 313 313 312 312 313 313 313 314 314 314 314 313 313 313 315 315 316 316 317 317 317 317 317 317 317 317 317 317 316 316 316 316 316 316 315 315 315 315 315 315 315 316 316 315 315 315 314 314 314 314 314 313 313 313 313 312 311 310 308
310 310 310 310 309 310 310 311 312 312 313 313 312 312 312 313 313 313 313 314 313 313 313 313 314 315 316 316 316 317 317 317 317 317 317 317 317 317 316 316 316 316 316 316 316 316 315 315 315 315 315 315 315 315 315 315 314 314 314 314 314 314 314 313 313 311 310 309 307
310 310 309 309 309 309 310 310 312 312 312 312 312 312 312 312 313 313 313 313 313 313 313 313 314 315 315 315 316 316 316 317 317 317 317 316 316 316 316 316 316 316 316 316 316 316 316 315 315 315 315 315 315 315 315 315 315 315 314 314 314 313 313 312 311 311 309 308 306
309 309 309 308 308 309 310 310 312 312 312 312 312 311 312 312 312 313 313 313 313 313 313 313 314 314 315 315 315 315 316 317 317 317 316 316 316 316 316 316 316 316 316 316 316 315 315 315 315 315 314 315 315 315 315 315 315 314 314 313 312 312 311 310 310 309 308 307 306
309 309 308 308 308 309 310 311 312 312 312 312 312 311 312 312 312 313 313 314 314 314 313 314 314 314 314 313 314 315 315 316 316 316 316 316 316 316 316 316 316 316 316 316 316 315 315 315 314 313 313 314 315 315 315 314 313 312 311 310 309 308 308 308 307 307 306 306 305
309 309 309 309 309 310 311 312 312 312 312 312 312 312 312 312 312 313 314 314 314 314 314 314 315 314 313 312 313 314 315 315 316 316 316 316 315 315 315 315 315 315 315 315 315 315 315 315 314 313 313 314 314 314 314 313 312 310 309 308 308 307 306 306 306 305 305 304 304
309 309 310 310 310 311 312 312 312 312 312 312 312 312 312 312 312 313 314 314 315 315 315 315 315 314 313 313 313 314 314 314 314 315 315 315 315 316 315 315 314 314 315 315 315 314 314 314 314 314 314 314 314 313 312 311 310 310 309 308 307 307 307 307 306 306 306 305 304
310 310 310 310 311 312 312 313 312 312 312 312 312 312 312 312 313 314 314 315 315 315 315 316 315 314 314 313 313 313 313 313 313 313 313 315 315 316 315 315 314 314 315 314 313 313 314 314 314 314 313 313 312 311 311 310 310 309 308 307 307 307 307 307 307 307 307 307 306
310 310 310 311 312 312 313 313 312 312 312 312 312 312 312 314 314 315 315 315 315 316 316 316 315 314 314 314 314 313 312 312 313 312 313 314 315 315 315 314 314 315 314 313 313 313 313 313 313 312 312 312 311 310 310 309 309 308 308 307 307 306 306 306 307 307 307 307 307
311 311 311 312 312 312 312 312 312 312 312 312 312 312 313 314 315 315 315 315 316 316 316 315 315 314 314 315 314 314 313 313 313 313 313 313 314 314 314 314 314 314 314 313 313 313 313 313 313 312 311 311 310 310 309 308 308 307 307 307 306 306 306 306 306 306 307 307 308
310 311 311 312 312 312 312 312 312 312 312 312 313 314 314 314 315 315 315 315 315 315 314 314 314 314 315 314 314 314 314 313 314 314 314 313 314 314 314 314 314 314 313 313 313 313 313 313 312 311 311 310 310 309 308 308 307 307 307 306 306 306 306 305 305 305 305 305 306
310 310 311 311 311 311 311 312 312 312 312 312 313 313 313 313 312 312 313 314 314 314 314 314 314 314 314 314 314 314 314 314 314 314 314 314 314 314 314 314 314 313 312 312 313 313 312 311 311 311 310 309 309 309 308 308 307 307 307 306 306 305 305 304 304 304 304 304 304
310 310 311 311 311 311 311 312 312 312 312 312 311 310 310 310 310 310 310 311 311 312 312 312 312 312 312 312 313 313 313 313 314 314 314 314 314 314 314 313 313 313 312 312 312 312 311 311 311 310 310 309 308 308 307 307 307 306 306 305 304 304 304 304 303 303 303 302 302
310 310 310 310 310 310 310 310 310 310 310 309 309 308 308 308 308 308 308 309 309 309 310 310 310 310 310 310 311 311 312 312 313 313 313 313 313 313 313 314 313 312 311 311 312 311 311 311 310 310 309 309 308 307 307 306 305 305 304 304 303 303 303 302 302 302 301 301 301
309 309 310 310 310 309 309 309 309 308 308 308 308 307 307 306 307 307 307 307 308 308 308 308 308 308 308 309 309 310 310 311 312 312 313 313 313 313 313 313 312 311 311 311 311 311 311 310 310 309 309 308 307 306 305 305 304 304 303 302 302 302 301 301 301 300 300 299 299
308 308 309 309 308 308 308 308 308 307 307 306 306 306 306 306 306 306 306 306 306 307 307 307 307 307 307 307 308 309 309 310 310 311 311 312 312 313 313 312 311 311 311 311 311 311 310 310 309 309 308 307 306 305 305 304 303 302 302 301 300 300 299 299 299 298 298 298 297
307 308 308 308 308 307 307 307 306 306 306 305 305 305 305 304 304 305 305 305 305 306 306 306 306 306 306 307 307 307 308 309 310 310 311 311 312 312 312 311 311 311 310 311 311 310 309 309 308 308 307 306 305 304 303 302 301 301 299 299 298 298 298 297 297 297 297 297 297
306 307 307 307 307 307 306 306 306 305 305 304 304 304 304 304 304 304 304 304 304 304 304 305 305 305 306 306 306 307 308 308 309 309 309 310 310 310 310 310 310 309 309 310 309 309 309 308 308 306 306 305 303 302 301 300 299 298 298 297 297 296 296 296 296 296 296 296 296
306 306 306 306 306 306 306 306 305 304 304 303 303 303 302 303 303 303 303 304 304 303 303 304 304 304 304 305 305 306 306 307 308 308 309 309 309 309 309 309 309 308 308 309 309 309 308 308 307 306 305 303 302 301 300 299 298 297 297 296 295 295 295 295 295 295 295 296 296
305 306 306 306 306 306 305 305 304 304 303 302 302 302 302 302 302 302 303 303 303 302 302 302 303 303 303 304 304 305 305 306 307 307 308 308 308 307 307 307 307 307 307 308 308 308 308 307 306 306 304 302 302 300 300 299 298 297 296 295 295 295 295 295 295 295 296 296 296
305 305 305 305 305 305 305 304 304 303 302 302 302 302 302 302 302 302 302 302 302 302 302 302 302 302 303 303 304 304 304 305 306 306 306 306 307 306 306 306 306 306 306 307 307 307 307 307 306 305 304 302 301 300 299 298 297 296 296 295 295 295 295 295 296 296 296 296 297
305 305 305 305 305 304 304 304 303 302 302 302 302 302 302 301 301 301 301 302 301 301 301 301 302 302 302 303 303 303 303 304 304 305 305 305 305 305 305 305 305 305 305 306 306 306 307 306 306 305 303 302 301 300 299 298 297 296 295 295 295 295 295 295 296 296 297 297 298
304 304 304 304 304 304 304 303 302 302 302 302 302 301 301 301 301 301 301 301 301 301 301 301 301 302 302 302 302 302 302 303 303 303 304 304 304 304 304 304 304 305 305 305 305 306 306 305 305 304 303 302 300 300 299 297 297 296 295 295 295 294 295 295 295 296 296 297 298
304 304 304 304 304 304 303 302 302 302 302 302 301 301 301 301 301 301 301 301 301 301 301 301 301 301 302 302 302 302 301 302 302 302 303 303 303 304 304 304 304 304 304 305 305 305 305 305 305 304 303 301 300 300 299 297 296 295 295 294 294 294 294 294 295 295 296 296 297
Wind_Speed
6 6 5 5 5 5 5 5 6 6 5 5 6 6 6 5 6 6 6 6 6 7 7 7 6 7 7 9 9 10 10 10 10 11 11 11 12 12 12 12 12 12 12 12 12 10 9 9 8 7 7 7 7 7 7 7 7 8 8 8 8 8 9 10 10 10 10 10 9
7 7 7 7 6 6 5 6 6 5 5 5 6 6 6 6 6 7 7 7 7 7 7 7 6 7 8 10 10 10 10 11 11 11 12 12 12 13 12 12 12 12 12 12 11 10 9 8 8 8 7 7 7 8 8 7 7 8 9 10 8 7 8 9 10 10 10 9 8
7 7 7 6 6 6 5 6 6 6 6 6 6 6 6 6 6 7 7 8 8 7 7 7 7 8 9 11 10 10 10 11 11 12 12 12 12 13 12 11 12 12 12 11 11 10 9 9 8 8 7 7 8 8 8 8 8 8 9 10 7 6 6 7 8 8 8 7 8
8 7 7 7 7 7 7 6 7 8 8 7 6 6 6 6 6 7 7 8 8 8 7 7 7 8 9 10 11 11 11 12 12 13 13 12 12 13 12 12 12 12 12 12 11 11 11 10 8 7 7 8 9 9 8 7 8 7 7 7 6 6 6 6 7 7 6 6 6
8 8 7 7 8 8 7 8 9 9 8 7 6 6 6 6 6 6 7 7 7 7 7 8 8 8 9 10 11 12 13 13 13 13 12 12 12 12 12 13 13 12 12 12 12 12 12 11 8 7 7 8 8 9 9 8 8 7 6 5 5 5 6 6 6 6 6 6 5
9 8 8 8 8 8 8 8 9 9 8 7 7 7 7 6 6 6 7 8 8 9 9 10 10 10 10 11 12 12 12 12 12 12 12 12 12 12 12 13 13 12 12 11 11 11 11 10 7 6 7 8 9 10 10 10 9 8 7 6 5 4 5 5 5 6 6 7 7
9 9 9 9 9 9 9 9 9 9 8 7 8 9 9 8 8 9 10 10 9 9 9 9 9 10 11 12 12 12 12 12 12 12 12 11 11 11 12 12 12 12 12 11 11 10 9 8 6 6 6 7 8 9 10 10 9 9 8 7 5 4 5 5 5 5 7 9 10
9 9 9 9 10 10 11 11 9 9 8 7 8 9 10 10 11 11 11 10 9 9 9 8 10 11 12 12 13 13 14 14 13 13 12 12 12 12 12 12 12 12 11 10 9 8 7 5 5 5 6 7 6 7 8 10 10 9 9 8 6 5 5 5 5 5 7 10 11
9 9 9 9 10 10 11 11 10 9 9 9 10 10 10 10 11 11 10 9 9 9 9 9 11 12 13 14 15 15 14 14 13 13 12 12 12 12 12 11 11 10 10 8 7 6 5 4 4 5 6 6 6 6 7 9 9 9 8 7 6 6 6 6 6 6 7 9 10
9 9 9 9 10 10 10 10 10 10 10 10 10 10 10 10 10 10 9 8 9 10 10 10 11 12 14 15 15 15 14 13 12 12 12 12 12 12 11 10 10 9 8 7 6 5 4 4 5 6 6 6 7 7 7 7 8 8 8 6 7 8 9 8 8 8 8 8 8
10 10 9 9 10 11 11 10 10 9 9 9 9 9 9 9 9 9 9 9 10 11 12 11 12 13 14 14 14 14 13 12 11 10 10 10 10 10 10 9 9 8 7 6 5 4 4 4 5 6 6 6 6 6 7 7 8 8 8 7 9 10 10 9 9 8 7 7 8
10 10 9 9 10 10 10 10 9 8 8 9 9 9 9 9 9 9 9 10 11 11 12 11 12 12 13 13 13 12 11 10 9 9 9 9 9 9 9 9 9 8 7 6 5 4 4 4 5 5 5 6 5 3 5 7 8 9 10 9 9 10 10 9 8 7 7 7 7
10 10 9 9 10 10 10 10 8 8 8 8 8 8 8 8 9 9 9 10 10 10 10 10 11 11 12 12 12 11 10 8 7 7 7 7 8 8 9 9 9 8 7 6 5 4 3 4 4 3 3 5 4 2 4 7 9 10 10 10 10 9 9 9 8 7 7 7 7
10 10 9 9 10 10 10 9 8 8 8 8 8 8 8 8 8 8 8 8 9 9 10 10 10 10 10 11 11 11 10 8 6 6 6 7 7 8 8 8 7 6 5 4 4 3 3 4 3 3 2 3 2 2 4 6 8 9 10 11 10 9 9 8 8 8 8 8 8
10 9 9 9 9 9 9 9 8 7 8 8 8 7 7 7 7 7 7 7 8 9 9 9 9 9 10 11 11 11 11 9 7 5 4 4 5 4 4 3 3 4 4 3 3 3 4 5 4 3 2 2 1 3 5 6 7 8 9 10 10 10 9 9 9 9 9 9 9
9 9 9 9 9 9 9 9 7 7 7 7 7 7 7 7 6 6 6 7 7 7 8 9 9 9 9 10 10 10 10 10 9 7 6 5 5 4 3 3 4 4 4 3 3 3 4 4 3 3 3 2 3 4 5 6 7 7 8 8 9 9 9 9 9 9 9 10 9
9 9 9 8 9 9 10 9 8 8 7 8 8 7 7 7 6 6 6 6 6 7 8 10 10 9 8 8 9 9 9 9 9 9 8 8 7 7 6 6 5 4 3 3 2 3 3 2 3 3 3 3 3 4 5 6 7 7 8 8 8 9 9 9 9 9 10 10 10
9 9 9 8 9 10 10 11 10 9 9 9 8 8 7 7 6 6 6 6 6 7 9 10 10 9 9 8 8 7 7 8 8 8 8 8 8 7 7 6 5 4 4 3 2 2 2 3 3 4 3 3 3 4 5 6 7 7 8 8 8 8 8 9 9 9 10 10 10
9 9 9 9 9 10 10 11 11 10 9 9 8 8 8 8 7 7 6 6 6 7 8 9 9 9 9 9 8 7 7 7 7 8 7 7 7 6 6 6 5 4 4 3 3 3 3 3 3 3 3 3 3 4 5 6 7 7 8 8 8 8 8 8 8 9 9 10 10
10 9 9 9 9 9 10 11 11 10 10 9 9 9 9 9 8 7 7 7 6 7 7 8 8 9 9 8 8 7 6 6 6 7 6 6 6 5 5 5 5 4 4 4 4 4 4 3 3 3 3 4 4 4 5 6 7 7 7 7 7 8 8 8 9 9 9 10 9
10 9 9 9 9 9 9 10 10 10 10 9 9 9 9 9 8 8 7 7 6 6 7 7 7 7 8 7 7 7 6 5 6 6 5 5 5 5 4 4 4 4 4 4 4 4 4 3 3 3 4 4 4 5 5 6 7 7 7 7 7 8 8 8 9 9 9 9 8
10 9 9 8 8 9 9 9 9 9 9 9 9 9 9 9 8 8 7 7 6 6 7 7 6 6 5 5 5 5 6 5 6 6 5 5 4 4 4 4 4 4 4 4 4 4 4 4 4 4 4 4 4 5 6 7 7 8 8 8 8 8 8 8 8 7 7 7 7
10 9 9 8 8 8 9 9 9 9 9 9 9 9 9 8 8 7 7 7 7 7 7 7 6 5 4 3 3 3 4 5 5 6 5 5 4 4 3 3 4 4 3 3 3 3 3 4 4 4 4 4 5 6 7 8 8 8 8 9 9 8 8 8 7 7 6 5 5
10 9 8 7 8 8 8 8 9 9 9 9 9 9 8 8 7 7 7 7 7 7 7 7 6 4 3 3 3 2 2 3 5 5 5 5 4 4 3 3 3 3 3 3 3 3 3 3 3 4 4 5 5 6 7 7 7 8 8 8 8 8 8 8 8 7 6 5 4
9 9 8 8 8 8 8 8 9 9 9 9 9 9 8 7 7 7 7 8 8 7 7 7 6 4 3 3 3 2 1 1 3 4 4 4 4 3 3 2 2 2 2 3 4 5 5 4 4 4 4 5 6 7 7 7 8 8 8 8 8 8 8 9 8 8 7 6 4
9 9 9 9 9 9 9 9 9 9 9 9 9 8 8 7 6 6 6 7 7 6 6 6 5 4 3 3 3 2 1 1 2 3 3 3 3 3 2 2 2 2 3 4 6 8 8 8 7 6 6 6 6 7 7 7 8 9 9 8 8 8 8 8 8 8 7 6 5
9 9 9 9 9 9 9 9 9 9 9 8 8 7 7 6 5 5 5 6 5 4 4 4 4 4 3 3 4 3 3 2 2 3 3 3 2 2 2 2 2 2 3 5 8 10 11 11 10 9 8 7 7 7 7 7 8 9 9 8 8 8 8 8 8 7 7 7 6
10 10 10 9 9 9 9 8 8 8 7 7 6 6 5 5 5 5 5 5 4 3 3 3 3 3 3 3 3 4 3 3 3 3 2 2 2 1 1 1 2 2 4 7 10 12 12 13 12 12 10 8 7 7 7 8 8 8 8 7 7 7 7 7 7 7 7 7 7
10 10 10 9 9 8 8 8 7 6 6 6 6 6 6 6 6 6 6 6 5 5 4 3 3 3 3 4 4 4 4 3 3 2 2 1 1 1 1 1 2 4 6 10 12 13 13 14 13 13 11 9 7 6 6 7 7 7 7 6 6 6 6 6 6 6 7 7 8
10 10 10 9 9 9 8 8 8 8 7 7 8 8 8 8 8 8 7 7 7 6 5 4 4 5 5 5 5 5 5 4 3 2 1 1 1 0 1 2 3 5 8 11 13 14 14 14 14 13 12 11 8 7 6 7 7 7 6 6 6 7 7 7 7 7 7 7 8
11 10 10 9 9 9 9 9 9 9 8 8 8 8 8 8 8 8 7 7 6 6 6 6 6 6 6 6 6 6 6 5 4 3 2 0 1 2 2 3 4 6 9 12 14 14 14 14 14 14 13 12 9 8 7 8 8 7 7 7 7 8 8 7 7 8 7 7 8
11 10 10 9 9 9 9 9 9 8 8 9 9 9 9 8 8 7 7 6 6 6 7 7 7 7 7 7 7 7 7 6 6 4 3 1 1 2 4 5 6 7 9 13 14 15 15 15 15 15 14 13 10 9 9 9 9 8 8 9 9 9 8 7 7 8 8 8 8
11 10 10 9 9 9 8 8 8 8 8 9 9 9 9 8 7 7 7 6 6 6 7 7 7 7 8 8 7 7 7 7 6 5 4 2 2 4 5 6 6 8 10 14 15 15 15 15 15 15 14 13 11 10 9 9 8 8 8 9 9 10 10 9 8 8 8 8 8
11 10 10 9 9 8 8 8 7 7 8 9 9 9 9 8 8 8 7 6 6 5 6 6 6 7 7 7 7 7 7 7 6 6 5 4 3 4 5 5 5 8 11 15 15 16 16 15 15 14 14 12 10 9 10 10 9 9 10 10 10 10 10 10 9 9 8 8 8
10 10 10 9 8 8 8 7 7 7 7 8 8 9 9 8 8 8 7 6 5 5 5 6 6 6 6 6 7 7 8 8 7 7 6 6 5 6 6 6 6 9 12 15 16 16 15 15 14 14 13 11 9 9 11 12 11 11 11 11 10 10 10 9 9 8 8 8 8
10 10 9 9 8 8 8 7 7 7 7 7 7 8 8 8 8 7 7 6 5 5 6 6 6 6 7 7 7 7 8 8 8 8 8 7 7 7 7 7 8 10 12 15 15 15 15 15 14 13 12 10 9 9 10 10 10 10 11 11 10 10 9 9 8 8 7 7 7
9 9 8 8 7 7 7 7 7 7 7 6 6 6 6 6 6 6 6 6 6 6 6 6 6 7 7 7 6 6 7 8 8 8 8 8 8 8 8 7 8 9 11 13 14 14 14 14 14 13 11 9 8 8 9 8 8 9 9 10 9 9 8 7 7 7 7 7 7
9 8 8 7 7 6 6 6 6 7 6 6 5 5 5 5 5 5 6 6 5 5 6 5 6 6 6 6 6 6 7 8 8 9 9 9 8 8 8 8 7 7 8 11 12 13 13 13 13 12 11 9 8 8 8 7 8 8 8 8 8 7 7 6 6 6 7 8 9
8 8 7 7 6 6 6 6 6 6 6 6 5 5 4 4 4 4 5 5 4 4 5 5 5 5 5 5 5 6 7 8 8 9 9 8 8 8 8 8 7 7 7 9 11 12 12 13 13 12 11 9 8 7 7 7 8 8 8 7 7 7 6 5 5 5 7 9 12
8 7 7 6 6 5 5 5 5 5 5 5 5 5 4 4 4 4 4 4 4 4 4 4 4 4 4 4 5 6 7 8 8 8 8 8 8 8 8 7 7 7 7 8 10 11 12 13 13 12 11 8 7 7 6 7 8 8 8 7 6 6 6 5 5 5 6 8 11
7 7 7 6 5 5 5 5 5 4 4 5 5 4 4 4 3 3 3 3 3 3 3 3 4 4 4 4 5 6 7 8 8 8 8 8 8 7 7 7 7 7 7 8 9 11 12 12 12 11 10 8 7 6 6 6 7 8 8 7 6 6 6 5 5 5 5 6 7
Wind_Direction
287 281 276 273 271 270 269 270 271 273 275 277 277 278 279 280 280 280 279 278 277 277 276 274 273 273 275 275 274 272 271 270 268 265 263 262 262 262 263 263 263 262 260 258 256 256 257 258 260 260 259 255 250 245 240 234 229 224 220 215 210 206 202 200 203 200 193 184 180
289 282 276 272 271 272 273 276 277 277 278 277 277 277 277 277 277 278 278 275 273 273 273 274 272 273 273 274 273 271 270 269 268 266 265 263 263 262 262 262 260 259 257 256 256 256 256 256 256 256 256 254 250 246 241 233 226 222 218 213 208 201 197 197 195 191 186 183 179
290 286 280 275 273 273 275 280 283 283 283 281 278 277 276 274 275 275 275 273 271 270 271 272 272 272 272 273 272 270 268 266 265 265 265 264 263 262 260 259 258 257 255 254 253 252 253 252 252 252 252 251 249 246 242 234 225 220 215 210 203 193 188 187 182 180 178 179 174
292 288 284 280 277 276 277 283 286 287 286 284 280 277 273 270 271 271 272 273 271 269 267 267 270 270 270 270 270 268 266 263 262 262 261 261 260 259 259 258 257 255 253 251 250 250 251 250 250 250 250 250 248 246 241 233 221 215 210 203 193 184 180 177 172 169 167 166 165
295 291 288 286 285 283 282 282 284 284 284 284 282 279 275 272 271 272 273 275 273 270 267 266 268 269 268 268 267 266 265 263 260 259 258 258 257 256 255 255 255 254 252 250 249 249 249 248 249 250 252 251 248 243 236 226 215 208 202 190 181 175 171 166 162 158 154 149 148
298 297 295 293 291 289 286 282 280 280 280 281 281 281 281 280 279 280 281 281 280 278 275 273 272 272 271 271 269 267 265 262 259 257 256 256 255 253 252 250 250 250 249 248 247 247 247 246 248 253 256 256 252 243 233 218 207 198 191 184 176 167 159 154 152 150 147 142 135
296 297 298 298 295 291 287 283 281 281 281 281 281 282 283 284 285 286 286 286 286 285 282 279 276 275 275 275 272 269 266 261 259 258 257 257 256 254 252 250 248 248 247 247 247 247 246 244 249 257 261 261 257 243 229 210 197 188 184 184 175 161 150 145 146 146 145 140 134
293 294 296 298 296 292 288 285 285 284 284 283 282 283 285 286 287 288 289 289 288 286 283 280 276 275 274 274 272 269 265 261 257 254 253 255 257 256 255 253 251 250 248 246 245 244 243 244 254 262 265 264 260 244 224 207 194 186 183 182 170 154 142 137 144 146 143 141 139
295 297 299 300 297 294 291 288 286 285 284 283 283 284 286 287 289 290 291 291 288 286 283 279 277 276 275 274 272 270 267 262 256 251 247 247 251 253 254 253 251 249 247 243 240 238 239 248 258 265 267 266 256 241 224 208 195 186 179 171 156 142 133 129 139 141 141 142 143
297 300 303 304 301 297 294 292 289 286 285 283 284 285 286 288 289 291 291 291 290 288 287 284 283 282 281 278 276 274 271 267 260 252 246 243 245 247 249 249 246 244 241 237 231 230 235 248 257 266 271 271 250 234 218 202 185 172 163 153 140 132 128 128 133 137 139 142 142
297 300 302 303 301 298 296 294 292 290 288 287 288 289 290 291 292 293 293 294 293 292 291 291 291 289 287 284 282 280 276 271 263 254 247 242 242 243 245 245 241 237 231 223 217 218 229 243 255 267 279 289 258 226 200 180 163 154 147 138 131 128 129 134 138 138 138 137 133
296 298 300 300 299 298 296 295 294 293 293 292 294 295 295 295 295 296 297 298 297 297 297 299 298 296 294 292 292 290 286 278 268 258 250 245 244 245 245 244 239 231 221 209 205 210 225 243 254 271 292 302 279 221 166 151 143 138 135 133 131 132 135 140 140 136 132 129 127
295 297 299 300 300 299 297 296 296 296 296 297 298 299 299 299 299 300 301 301 301 303 305 307 305 303 302 303 306 308 306 296 278 263 253 248 247 246 245 243 235 223 210 197 197 204 223 245 251 263 284 290 270 204 135 130 130 130 130 131 134 136 138 140 136 131 127 127 127
293 295 297 300 301 301 299 299 298 298 297 299 300 301 301 301 302 303 303 303 306 309 310 312 311 311 312 315 320 325 327 322 302 279 262 255 252 248 245 239 224 206 190 182 188 202 222 242 237 233 240 259 239 154 120 119 124 128 131 133 136 137 138 138 135 132 131 133 130
293 294 298 301 303 302 301 301 299 298 297 298 300 302 303 303 303 304 305 308 311 313 315 316 317 317 319 324 329 335 340 342 337 325 305 287 278 269 257 227 180 162 157 163 181 206 224 234 218 200 188 207 155 120 115 117 123 128 132 135 137 138 138 138 137 137 136 135 131
295 297 300 304 304 303 301 300 298 296 296 297 300 302 303 303 304 306 310 315 318 319 320 320 320 322 325 330 334 339 345 352 357 1 5 7 8 16 37 77 104 119 131 153 182 208 219 219 194 168 150 138 118 114 116 119 123 127 130 132 134 135 136 136 136 136 135 134 130
298 300 303 305 305 304 302 300 298 297 297 299 301 302 302 302 305 309 315 322 325 324 323 322 323 325 330 334 339 343 348 354 2 10 17 24 29 37 48 64 81 97 115 143 174 192 193 175 140 125 121 119 115 115 116 119 123 125 126 126 128 129 131 132 132 132 132 130 129
301 302 305 307 306 304 302 300 298 298 299 301 302 302 301 302 306 310 317 324 327 326 324 323 325 328 332 337 341 345 349 354 1 8 16 23 30 37 46 57 70 84 98 115 131 137 127 109 102 102 106 111 112 113 116 118 119 119 119 121 123 125 126 127 128 128 128 128 129
304 305 307 308 307 304 302 300 299 299 301 302 302 302 302 302 306 310 316 323 326 326 324 324 327 329 332 337 340 344 348 352 359 5 11 18 26 35 44 53 65 76 86 94 97 94 87 82 85 89 95 102 102 104 107 110 112 113 115 119 121 122 122 122 123 124 125 128 132
306 307 308 308 306 303 300 298 298 299 301 302 302 302 302 303 306 311 315 320 323 324 324 325 327 329 330 334 339 342 346 349 356 2 7 12 19 28 37 48 59 68 75 81 83 82 80 77 79 83 89 95 96 95 96 99 105 110 114 116 116 115 115 115 116 119 123 129 134
308 307 306 306 303 300 297 294 294 296 298 300 300 301 302 304 307 311 314 316 318 320 322 323 324 325 327 330 336 341 344 347 352 356 0 7 15 22 30 39 50 59 65 71 76 79 82 84 84 84 86 91 93 93 93 95 99 101 102 102 101 102 104 108 112 116 122 128 136
308 306 304 303 299 295 292 289 290 293 295 297 298 300 302 304 308 311 314 315 316 318 319 319 318 317 318 321 329 337 343 348 349 350 352 358 7 16 25 36 47 54 60 64 72 79 84 86 84 82 83 87 90 92 93 94 94 93 92 91 90 90 92 96 101 106 113 122 132
307 305 303 300 295 290 287 286 288 291 294 297 298 300 302 305 309 313 317 318 317 317 317 315 311 306 297 290 303 325 343 351 346 344 344 349 354 4 18 37 50 56 58 60 67 75 81 84 80 77 77 81 85 88 91 93 93 92 90 87 85 84 83 84 87 91 96 103 115
305 303 301 297 292 290 287 287 290 293 296 297 299 301 303 305 311 317 320 319 317 315 314 313 310 299 281 267 272 298 342 353 340 335 335 341 346 353 6 28 46 56 60 60 63 70 78 85 81 77 74 76 80 83 87 89 90 88 86 82 80 77 75 73 76 78 81 82 88
304 302 299 296 294 293 293 294 296 297 297 297 298 300 301 306 313 318 320 318 314 312 311 312 311 304 287 274 274 282 323 341 321 316 318 328 338 347 357 16 35 49 59 66 68 73 77 81 83 81 79 79 81 82 83 83 83 82 81 78 77 74 72 69 68 69 70 72 73
307 305 303 301 301 302 303 303 301 299 297 296 296 297 299 304 310 314 316 314 311 312 314 319 323 320 311 301 303 306 306 297 291 293 300 316 331 343 355 12 32 47 64 77 80 81 82 82 84 85 87 88 87 86 84 81 80 79 78 77 77 78 77 74 71 69 69 69 72
314 312 311 309 311 312 312 310 306 302 299 297 295 296 298 303 309 315 318 316 317 321 328 336 341 337 329 323 324 325 322 313 295 288 290 303 321 334 353 17 39 62 81 89 89 88 87 87 87 88 90 92 91 90 89 86 82 80 79 78 79 81 83 83 81 78 75 72 72
322 320 318 318 321 321 320 317 314 310 308 305 306 310 315 323 332 338 339 336 340 347 355 357 352 346 340 336 332 330 329 327 313 297 287 290 299 310 345 36 58 80 92 95 93 91 90 89 89 89 90 92 92 92 91 89 86 84 82 82 82 83 84 86 85 84 80 75 71
328 326 326 329 331 332 332 332 334 335 336 339 347 353 358 2 5 4 2 1 5 10 11 8 1 357 354 348 340 336 333 331 323 307 284 265 273 291 1 62 80 91 96 96 94 92 91 90 89 89 88 88 91 91 89 88 87 86 84 83 82 82 83 83 83 82 80 77 72
334 334 336 340 343 347 351 355 359 2 5 7 11 13 15 15 14 12 11 12 15 16 16 14 13 9 5 356 350 347 344 339 334 326 300 218 206 169 78 80 93 98 98 97 96 94 92 91 90 88 87 86 86 86 85 84 83 82 81 80 79 78 78 77 76 75 76 77 76
339 341 344 348 353 358 1 3 5 7 9 12 14 16 17 16 15 13 13 14 16 17 18 21 19 14 8 0 357 355 352 347 343 340 335 200 157 133 108 99 103 103 101 100 99 97 96 94 92 90 88 86 84 83 82 80 79 78 77 77 76 76 76 74 70 69 70 73 77
342 344 348 352 357 360 1 2 3 5 9 12 15 16 16 14 12 12 12 13 15 18 21 22 19 13 7 2 0 358 356 353 349 347 345 357 123 121 112 106 108 107 105 103 101 99 97 95 93 91 88 86 84 83 82 81 79 76 74 72 71 70 70 71 70 68 67 70 74
344 346 349 354 356 358 358 360 2 6 10 14 16 14 12 9 9 10 11 12 15 19 22 23 19 14 8 3 1 360 358 357 354 352 353 8 85 109 111 109 110 109 106 104 101 99 97 95 94 92 91 89 87 86 84 83 80 75 71 67 64 63 64 66 67 67 68 71 74
344 346 348 352 353 355 356 358 2 7 13 17 16 13 9 6 6 7 7 7 11 18 23 25 22 18 12 7 4 2 2 1 1 2 6 21 67 95 105 109 110 109 106 104 101 98 96 95 94 93 92 90 88 84 81 78 75 72 68 65 62 61 61 62 64 66 68 72 78
343 345 347 349 351 352 353 356 0 8 15 21 18 13 9 6 5 3 2 360 6 15 23 25 24 22 18 12 9 8 7 8 11 14 19 31 57 78 91 99 103 104 103 102 101 99 97 95 93 92 89 86 82 79 77 75 73 71 69 68 65 63 62 63 65 67 70 75 81
341 343 345 346 349 351 352 355 359 5 14 22 19 15 9 6 3 360 356 354 4 15 22 25 26 25 22 17 14 13 12 13 19 24 29 36 53 67 78 86 93 98 100 102 102 102 101 99 95 91 87 82 79 77 76 76 75 74 73 72 69 67 65 66 67 69 71 75 81
339 341 342 344 347 350 353 355 359 4 10 17 18 15 10 4 1 358 356 356 5 14 20 26 28 27 24 18 17 16 17 19 26 31 35 37 48 59 68 73 80 88 95 101 104 104 104 102 98 95 90 87 86 85 84 84 83 81 79 77 75 72 70 70 70 71 72 75 81
335 337 340 342 345 349 353 357 0 3 5 8 10 11 8 4 1 359 359 0 6 12 17 24 28 26 22 17 21 24 26 28 33 37 39 39 43 50 59 64 67 74 84 94 100 102 102 101 99 97 95 95 95 95 94 94 93 91 88 86 82 78 74 74 73 74 76 80 85
332 333 336 339 343 348 353 359 2 2 1 359 1 3 5 4 1 359 359 1 6 11 17 24 26 23 19 18 27 33 36 35 37 41 44 44 43 46 52 59 59 60 68 79 89 94 96 97 96 96 96 97 98 99 100 101 100 99 97 95 91 85 80 78 78 80 82 85 88
328 330 333 337 341 347 352 357 1 0 358 355 357 359 1 2 359 358 359 2 7 12 18 25 24 22 21 24 35 42 43 42 40 43 47 50 48 49 52 59 59 59 61 68 79 87 92 94 95 96 96 97 99 101 103 105 104 103 102 100 98 94 88 83 82 82 84 86 89
327 329 332 336 341 346 351 355 358 358 358 357 357 356 355 355 358 0 3 7 11 14 21 28 28 29 31 35 43 48 51 49 45 44 47 51 52 52 53 59 61 61 62 65 75 84 90 94 96 98 99 100 102 104 107 108 107 107 106 105 104 102 99 94 90 87 87 88 91